Home > Weather > Havana > Past weeks

Flag for Cuba Weather for the Past 2 Weeks in Havana, Cuba

Now
63 °F

Partly sunny.


Feels Like: 63 °F
Forecast: 64 / 71 °F
Wind: 6 mph from West

Location: Aeropuerto Jose Marti - Rancho-Boyeros - Habana

Current Time: Feb 8, 2016 at 9:48:16 AM

Latest Report: Feb 8, 2016 at 8:55 AM


Visibility: N/A

Pressure: 30.15 "Hg

Humidity: 68%

Dew point: 52 °F

Location of HavanaLocation

Historic Weather in Havana — Graph

°F

Havana Temperature Yesterday

Maximum temperature yesterday: 72 °F (at 9:55 AM)
Minimum temperature yesterday: 61 °F (at 11:55 PM)
Average temperature yesterday: 65 °F

High & Low Weather Summary for the Past Weeks

 TemperatureHumidityPressure
High86 °F (Feb 2, 1:55 PM)94% (Jan 30, 4:55 AM)30.24 "Hg (Jan 30, 4:55 AM)
Low50 °F (Jan 30, 6:55 AM)36% (Jan 25, 2:55 PM)29.86 "Hg (Jan 28, 1:55 PM)
Average70 °F74%30.06 "Hg
* Reported Jan 24 8:55 AM — Feb 8 8:55 AM, Havana, Weather by CustomWeather, © 2016

Note: Actual official high and low records may vary slightly from our data, if they occured in-between our weather recording intervals... More about our weather records

Advertising

Havana Weather History for the Previous 24 Hours

 ConditionsComfort  
Time TempWeatherWind HumidityBarometerVisibility
8:55 AM
Mon, Feb 8
63 °FPartly sunny.6 mph68%30.15 "HgN/A
7:55 AM57 °FPartly sunny.2 mph82%30.12 "Hg6 mi
6:55 AM55 °FPassing clouds.1 mph82%30.12 "Hg6 mi
5:55 AM55 °FPassing clouds.1 mph88%30.09 "Hg6 mi
4:55 AM54 °FPassing clouds.1 mph88%30.07 "Hg6 mi
3:55 AM55 °FPassing clouds.2 mph82%30.07 "Hg6 mi
2:55 AM59 °FPassing clouds.2 mph77%30.07 "Hg6 mi
1:55 AM57 °FPassing clouds.2 mph82%30.09 "Hg6 mi
12:55 AM59 °FPassing clouds.3 mph68%30.09 "Hg6 mi
11:55 PM
Sun, Feb 7
61 °FPassing clouds.3 mph63%30.12 "Hg6 mi
10:55 PM63 °FPassing clouds.5 mph64%30.12 "Hg6 mi
9:55 PM63 °FPassing clouds.3 mph59%30.12 "Hg6 mi
8:55 PM63 °FPassing clouds.6 mph59%30.12 "Hg6 mi
7:55 PM63 °FPassing clouds.7 mph64%30.09 "Hg6 mi
6:55 PM64 °FPassing clouds.12 mph60%30.07 "Hg6 mi
5:55 PM66 °FPartly sunny.12 mph56%30.07 "Hg6 mi
4:55 PM68 °FPartly sunny.13 mph53%30.07 "Hg6 mi
3:55 PM68 °FPartly sunny.13 mph56%30.07 "Hg6 mi
2:55 PM68 °FPartly sunny.14 mph56%30.07 "Hg6 mi
1:55 PM66 °FPartly sunny.13 mph64%30.09 "Hg6 mi
12:55 PM64 °FPartly sunny.14 mph73%30.09 "Hg6 mi
11:55 AM64 °FPartly sunny.15 mph73%30.12 "Hg6 mi
10:55 AM64 °FLight rain. Partly sunny.22 mph83%30.12 "Hg5 mi
9:55 AM72 °FPartly sunny.8 mph69%30.07 "Hg6 mi
Weather by CustomWeather, © 2016

See weather overviewHow to use our weather pages